Theta_e
313 313 314 314 314 318 321 320 320 323 321 314 316 315 316 320 320 320 320 321 326 328 334 349 351 352 361 359 356 358 360 357 364 362 353 356 347 344 347 340 335 329 328 331 334 341 342 342 343 341 340 342 340 338 336 330 330 332 333 330 322 328 339 340 340 341 341 342 343 344 344 343 343 343 343 342 342 342 342 339 338 336 335 337 338 338 338 336 334 333 329 324 318 315 316 317 317
312 313 313 314 317 319 323 321 320 320 317 313 314 315 317 319 319 319 320 323 328 334 345 352 353 353 355 355 355 358 359 355 357 356 350 347 345 346 343 339 334 329 327 327 332 337 340 343 342 341 341 343 339 336 333 329 331 332 333 328 322 331 340 339 340 341 342 343 343 344 343 343 343 342 342 342 341 342 342 340 340 338 337 338 338 338 338 336 334 333 331 326 318 314 313 314 317
311 313 313 316 320 320 323 322 320 316 313 313 314 318 319 319 319 319 320 324 328 339 350 350 351 352 350 355 354 356 358 351 349 347 345 346 347 345 340 335 332 328 325 326 330 330 337 342 341 342 342 342 338 333 331 330 332 333 332 325 323 334 339 339 341 342 343 343 343 343 343 343 343 342 341 341 341 342 342 341 341 340 339 338 337 336 336 336 335 333 333 328 318 313 312 314 320
311 313 315 318 322 323 323 321 322 316 312 313 313 318 320 318 319 319 320 321 322 330 340 348 354 350 351 361 355 360 361 351 348 345 345 346 345 344 339 334 330 328 325 325 326 327 334 340 341 342 343 341 338 334 330 332 334 333 329 323 326 336 339 339 341 342 343 343 343 344 343 343 342 342 342 342 342 342 342 341 341 340 339 338 337 335 335 336 336 334 333 330 320 313 312 317 325
311 314 318 317 321 322 321 318 321 316 313 316 313 318 320 318 319 318 319 319 320 320 328 347 355 349 350 354 351 362 362 351 349 346 345 344 344 343 339 335 330 328 326 324 324 329 334 338 341 342 342 341 340 337 333 335 334 330 325 323 329 337 338 339 341 343 343 343 343 343 343 342 342 342 341 342 341 341 341 341 341 340 339 338 334 333 335 334 333 333 332 330 321 314 315 322 328
312 316 319 317 319 318 318 316 315 314 316 320 315 318 319 318 318 318 319 318 321 318 327 348 352 350 350 347 348 355 354 352 351 347 345 342 342 339 337 334 329 328 328 327 324 328 335 338 340 341 342 341 341 339 337 335 331 327 324 326 332 337 338 339 342 343 343 343 343 343 342 342 342 341 341 341 341 341 341 340 340 339 337 336 332 332 334 331 329 329 329 327 319 315 320 326 329
314 317 320 320 321 319 320 317 314 315 317 319 316 318 318 317 318 317 318 318 320 320 339 352 346 353 354 348 352 352 348 351 350 346 344 341 340 337 334 331 329 331 331 329 324 329 336 337 339 341 342 341 340 340 339 334 330 327 326 330 335 337 338 340 342 343 343 344 343 342 342 342 341 341 341 341 341 341 341 340 339 339 338 335 333 334 333 330 328 328 327 325 318 316 322 328 330
316 319 321 321 322 319 319 318 315 317 317 317 317 318 318 318 318 317 318 318 318 322 345 350 345 361 358 354 363 356 349 351 348 346 343 339 338 336 334 330 330 332 332 328 327 334 338 336 338 340 341 341 340 339 336 332 330 330 332 335 337 337 338 341 343 342 343 343 342 342 341 341 341 341 341 340 341 341 340 340 339 339 338 334 333 331 330 329 329 328 327 324 318 318 324 328 330
316 318 319 319 320 317 316 316 315 317 317 317 317 318 321 320 318 319 318 318 319 323 345 347 347 365 359 358 365 354 348 349 347 344 340 338 338 336 334 331 328 330 330 329 331 337 338 337 339 340 340 340 339 338 334 333 334 335 337 339 339 338 339 342 343 342 343 342 342 341 341 341 341 340 338 337 339 340 339 339 339 338 335 331 329 327 328 330 329 328 326 322 318 319 324 328 330
317 317 320 318 316 314 312 313 314 316 316 317 317 317 319 318 318 319 317 319 317 323 345 349 353 362 359 360 360 353 348 346 344 342 339 339 340 337 334 331 326 325 326 330 335 336 337 338 339 341 340 339 338 336 332 333 336 338 340 340 338 338 340 343 342 342 342 341 342 341 340 339 337 334 331 329 330 332 332 334 334 334 332 328 328 326 327 330 330 329 327 322 318 320 325 328 330
320 317 318 317 314 312 311 312 313 315 315 315 316 317 318 317 319 317 318 319 315 331 353 355 359 358 357 360 358 352 347 345 343 341 341 342 341 337 334 330 326 323 323 330 335 337 337 338 339 340 340 338 335 331 331 334 337 338 338 338 337 339 341 342 342 342 341 341 341 340 339 337 333 329 327 325 322 322 321 322 321 324 326 324 324 326 326 330 330 329 328 323 319 320 324 328 330
321 318 316 317 315 313 312 312 312 315 314 314 315 316 317 316 317 317 318 317 317 340 354 354 357 355 359 361 357 351 347 346 345 343 344 343 341 338 334 329 327 323 321 327 335 338 338 338 338 338 338 336 332 329 331 333 335 336 336 337 338 341 342 342 342 341 341 341 340 339 337 333 331 329 327 324 321 319 317 316 315 317 322 319 321 325 327 330 330 329 329 325 319 318 323 328 330
320 320 316 316 317 314 313 313 313 317 315 315 315 315 318 315 317 317 317 318 317 330 339 347 351 354 360 359 357 352 350 348 345 345 344 343 342 339 335 330 328 326 324 327 334 339 338 338 338 337 336 335 333 333 334 335 336 336 338 339 340 341 342 342 341 341 341 340 339 337 334 331 331 329 327 323 320 319 316 315 314 314 318 316 318 324 326 329 331 330 330 327 322 318 321 327 331
318 319 316 317 317 314 314 312 313 315 313 315 315 315 316 315 318 317 317 317 315 323 336 347 349 356 361 358 359 354 351 348 345 345 343 343 342 339 336 333 331 331 332 334 337 339 338 338 338 337 335 335 336 338 339 340 340 341 341 341 341 342 342 341 341 340 340 339 337 334 332 332 332 331 327 323 320 318 315 312 312 313 315 314 316 323 326 329 331 330 330 329 326 321 319 323 329
316 317 317 318 316 313 313 313 313 312 312 315 314 315 315 316 318 318 322 318 318 335 347 349 347 359 363 357 360 354 350 347 345 345 343 343 341 339 337 335 335 335 338 339 339 339 338 338 338 338 335 334 339 342 342 342 342 342 342 342 342 342 342 341 340 340 339 337 335 333 333 333 333 332 329 323 320 319 316 312 311 312 314 314 316 322 326 328 330 330 331 329 328 325 320 319 325
315 315 315 317 315 313 314 314 314 312 313 315 315 315 315 317 318 319 322 319 328 342 349 349 347 356 359 355 356 351 348 347 345 344 343 342 341 340 339 338 338 338 340 340 340 339 338 338 338 337 335 335 341 343 343 342 342 342 342 342 342 341 341 340 340 339 338 336 334 334 335 334 334 333 329 323 320 320 317 313 311 311 313 313 314 322 326 328 329 330 330 330 328 326 323 320 320
315 315 315 315 314 313 315 314 314 314 315 316 315 316 315 317 319 320 320 327 341 347 350 352 349 353 355 353 353 349 348 347 346 344 343 342 341 341 340 340 340 339 340 340 340 339 338 338 337 336 334 335 341 343 343 343 342 342 342 342 341 341 340 340 340 339 338 336 335 336 336 335 335 335 332 327 322 321 318 313 311 311 312 312 313 321 325 326 328 329 329 329 329 328 326 323 321
315 317 316 314 314 313 315 315 315 315 316 316 315 317 318 319 321 321 321 332 351 357 354 355 353 354 352 352 352 349 348 347 346 345 344 343 342 342 341 341 340 340 340 339 340 339 339 338 336 335 334 335 340 343 343 343 342 342 342 342 342 341 340 340 339 339 337 337 336 336 336 336 338 337 335 331 324 322 322 318 316 313 311 311 313 319 324 325 326 327 327 327 328 327 328 325 323
316 317 316 314 314 313 315 315 315 315 316 315 315 318 320 321 321 323 320 327 353 364 356 355 356 354 353 351 351 348 348 348 346 345 344 343 342 342 342 341 340 340 340 339 339 339 339 337 335 336 335 335 340 343 342 343 342 342 342 342 342 341 341 340 338 338 337 337 337 337 338 339 340 339 337 334 328 324 325 326 324 319 316 315 315 317 320 322 323 324 324 325 324 324 329 330 326
317 316 315 314 314 314 314 315 315 315 316 315 316 319 320 323 320 322 321 325 352 366 359 359 358 355 354 351 350 349 348 348 347 346 345 344 343 342 342 342 341 341 340 340 338 337 337 335 334 336 336 336 339 342 342 342 342 341 341 341 341 341 341 340 338 337 336 337 339 340 340 340 339 339 338 337 334 329 329 330 330 328 327 328 327 324 322 321 320 321 323 324 323 322 328 332 331
318 317 316 315 314 314 314 314 315 315 316 315 315 318 320 323 321 323 321 321 341 356 357 359 358 355 354 352 350 348 348 348 348 347 346 345 343 342 341 342 342 341 340 340 337 335 334 332 332 334 336 336 337 341 341 341 341 340 340 340 340 341 340 339 337 336 337 339 341 340 340 340 338 339 340 340 338 336 335 335 335 334 334 335 335 334 333 331 328 327 328 328 328 326 326 328 329
317 318 317 317 314 314 315 314 315 315 315 315 315 317 319 320 323 334 336 330 338 348 353 355 354 353 353 350 346 343 343 344 345 345 343 342 341 341 341 340 340 340 341 340 338 337 335 332 330 332 335 335 337 340 341 340 340 339 340 340 340 340 339 339 337 337 338 340 340 339 339 339 339 340 340 340 339 338 338 337 337 338 337 337 336 336 336 337 336 334 334 333 332 330 330 330 330
317 318 317 317 316 315 315 315 315 316 315 314 316 317 319 320 325 340 351 349 348 348 350 352 352 350 348 345 341 339 339 339 340 340 339 338 339 340 339 339 338 339 340 340 340 339 338 337 333 333 334 334 337 340 339 338 338 339 339 339 339 339 339 340 340 339 340 341 339 339 339 339 340 340 339 339 339 339 338 337 338 338 338 338 337 337 336 337 337 336 336 336 335 334 334 334 335
316 316 316 316 316 316 316 316 316 316 315 314 317 317 317 318 324 342 352 350 351 353 350 352 349 344 342 340 338 338 337 337 337 336 337 337 338 338 337 338 338 338 339 339 340 340 340 340 336 335 335 335 337 338 336 335 336 337 338 338 338 338 340 341 341 341 340 340 339 340 340 339 340 340 338 338 338 338 337 337 339 339 338 339 338 338 338 337 338 337 338 338 337 337 337 337 336
315 315 316 316 315 316 316 317 316 316 316 314 317 315 317 327 333 346 352 349 350 352 349 347 345 341 339 338 338 338 337 338 336 336 338 337 337 337 337 337 337 338 338 338 340 341 341 340 338 338 336 335 336 336 335 336 337 337 337 337 337 339 341 341 341 341 340 340 339 340 340 339 339 339 339 339 338 338 338 338 339 339 339 339 339 340 339 338 339 339 338 338 338 338 337 337 336
314 314 315 315 315 316 316 317 317 317 316 314 317 314 320 337 350 352 346 347 349 348 347 344 344 342 339 339 341 340 339 338 336 336 337 337 338 337 337 337 337 338 338 339 340 341 340 339 339 336 333 333 335 336 337 339 339 338 338 337 338 340 340 339 340 341 340 339 339 338 338 338 339 339 339 339 339 339 339 339 339 339 339 339 339 340 339 338 339 339 339 338 338 337 337 337 337
313 314 314 314 315 314 316 316 316 316 315 315 316 315 321 330 353 362 345 346 349 346 347 344 344 343 340 340 341 341 339 338 337 338 338 338 338 337 337 337 338 339 338 339 340 340 339 340 339 334 332 334 336 337 338 339 340 339 339 339 339 340 340 339 340 339 339 338 337 337 337 338 339 338 339 339 339 339 339 338 338 338 338 338 338 339 338 339 339 339 338 338 337 338 338 338 338
313 314 313 314 314 313 315 315 316 316 314 317 315 318 320 316 342 364 348 346 348 347 348 344 343 342 340 341 341 340 339 338 338 338 339 338 338 338 337 337 338 339 338 339 340 340 341 341 338 334 334 336 337 338 338 338 339 340 340 339 340 339 339 339 339 338 338 337 337 337 337 338 339 339 339 339 339 339 338 338 337 338 338 339 339 339 339 339 340 339 338 338 338 338 338 338 338
312 313 313 313 313 314 314 314 316 315 315 320 316 317 316 318 344 355 346 347 347 347 347 343 342 341 340 340 340 339 338 337 337 337 338 338 338 338 337 338 338 338 338 339 340 340 340 340 337 335 336 336 337 337 337 337 338 340 339 338 339 339 338 339 338 338 337 336 337 338 338 338 339 340 339 338 339 339 338 338 338 338 339 340 340 340 340 340 340 339 338 338 338 338 338 338 338
312 312 312 312 312 312 314 314 315 315 318 318 316 316 318 334 349 347 344 347 346 347 347 343 341 340 339 339 339 339 337 336 336 336 338 338 338 338 337 338 339 339 338 338 338 338 338 339 338 337 336 336 337 337 337 337 338 338 337 336 337 337 338 338 337 337 337 337 338 339 338 339 339 339 338 338 339 339 338 338 338 339 339 340 341 341 340 340 339 338 338 338 338 338 338 338 338
311 312 312 311 310 311 313 314 315 315 318 318 318 315 320 343 348 345 344 345 346 347 345 342 341 340 339 339 339 339 337 335 336 337 338 338 337 338 338 338 338 338 337 337 337 336 336 336 336 337 337 336 336 336 336 337 337 337 337 337 337 336 337 337 337 337 338 338 338 339 339 339 339 339 338 338 338 339 339 338 339 340 340 340 341 341 340 339 339 338 338 338 338 338 338 338 338
311 310 311 310 309 312 314 315 315 314 316 319 316 312 324 346 348 345 344 344 346 346 344 342 341 340 339 339 339 339 338 336 336 338 337 338 338 337 337 337 337 336 336 336 335 335 335 335 335 336 337 336 337 336 336 336 336 337 337 337 337 337 338 338 338 338 338 339 338 338 338 339 339 340 339 338 339 339 338 339 339 339 340 340 341 341 340 340 338 339 339 338 338 338 338 338 338
312 310 311 311 309 312 313 314 315 315 316 316 317 328 343 352 348 344 346 344 344 345 344 343 341 340 340 340 340 339 339 338 337 337 337 338 337 337 337 336 336 336 336 336 335 335 335 336 336 336 337 337 337 336 336 337 337 337 337 337 338 338 338 339 339 339 338 338 338 338 339 339 340 339 339 339 339 339 339 339 338 339 340 340 340 340 339 338 338 338 337 337 337 337 337 337 336
312 311 311 312 310 311 312 314 315 315 315 315 322 344 355 351 346 346 347 344 343 345 344 342 341 339 339 340 340 340 339 338 338 337 337 337 337 337 337 336 337 336 336 337 337 336 336 337 336 337 337 337 336 337 337 337 337 337 337 338 338 337 338 339 339 339 338 338 339 339 339 339 339 338 338 338 338 338 338 338 338 338 339 339 338 338 337 337 336 336 335 335 336 336 336 335 335
313 313 313 313 311 311 312 313 316 314 315 316 317 337 351 348 346 346 345 343 343 344 342 341 340 339 340 340 340 339 338 339 338 337 337 337 337 337 337 337 337 336 337 338 338 337 337 337 337 337 337 336 337 337 337 338 338 338 338 338 338 338 339 339 339 338 338 338 339 339 338 338 337 337 337 337 336 337 338 337 337 337 337 337 337 337 336 336 335 335 334 334 335 335 334 334 335
314 314 315 315 311 311 313 313 317 314 315 317 313 334 352 351 348 347 344 343 343 342 342 341 340 340 340 340 340 340 340 339 338 337 337 336 337 337 337 337 337 337 338 338 337 337 337 337 337 337 337 337 337 337 337 338 338 338 338 339 338 339 339 339 339 338 338 338 338 338 337 336 337 337 337 337 337 337 337 337 337 337 336 336 336 336 335 334 334 334 334 334 334 334 333 333 334
312 312 312 313 311 312 313 313 317 314 316 314 315 340 354 351 348 347 344 343 343 343 343 342 341 341 340 340 341 341 340 339 337 337 337 336 336 337 337 337 337 337 338 338 337 337 337 337 337 337 337 338 337 337 337 338 339 338 338 338 338 338 338 338 338 337 337 338 337 336 336 336 336 337 336 336 336 336 336 335 336 336 335 335 335 334 333 332 333 333 333 333 332 333 332 332 332
310 310 311 311 310 312 313 315 315 314 316 313 322 347 353 350 349 345 344 345 344 343 343 343 341 340 340 340 341 341 340 338 338 338 337 336 336 337 337 337 337 337 337 337 337 337 337 338 337 337 338 338 338 338 338 339 339 338 338 338 338 337 337 338 338 337 337 336 335 335 335 336 336 336 336 335 335 335 334 334 334 334 334 333 333 332 332 331 331 331 331 331 331 331 329 329 330
310 310 311 310 311 312 312 315 314 314 315 312 327 351 352 348 348 345 345 345 343 342 340 340 341 341 341 340 341 341 340 340 339 339 338 336 336 336 337 337 336 336 336 336 336 337 338 337 337 337 337 338 339 339 339 339 339 338 338 338 337 337 337 337 337 336 335 334 334 334 334 334 334 334 334 334 334 333 332 332 332 332 332 332 331 331 330 329 328 328 328 329 329 329 328 327 328
310 310 312 312 311 311 310 313 314 314 315 314 328 347 349 347 347 345 345 344 343 342 340 339 340 341 341 339 340 341 341 342 341 340 339 337 336 337 337 336 336 335 335 336 336 337 337 337 337 337 338 338 339 339 339 339 338 338 338 337 337 337 336 336 335 334 332 332 332 332 332 332 332 333 332 333 332 330 330 330 330 330 329 329 329 328 327 326 326 325 325 326 327 327 326 326 326
309 310 312 312 311 311 311 314 314 312 315 322 335 347 350 347 347 347 346 345 344 342 341 341 342 341 340 339 339 340 341 342 342 342 339 337 337 336 336 336 336 335 335 336 336 337 337 337 337 337 338 338 338 338 338 338 337 337 337 336 336 336 335 334 333 331 330 330 330 330 330 330 330 331 331 331 330 329 329 329 328 328 327 326 326 325 324 324 323 323 323 323 324 325 325 324 325
310 310 311 311 312 312 312 313 314 311 311 321 336 346 349 346 344 347 347 346 345 343 343 343 343 342 340 340 340 340 340 339 340 340 338 337 337 336 336 336 336 335 336 337 337 337 337 336 337 337 338 338 338 337 336 337 337 336 336 336 335 334 333 332 331 330 329 329 328 328 328 328 328 329 328 328 328 328 327 327 328 327 325 324 323 322 322 322 322 321 321 321 322 323 323 323 322
310 311 312 312 312 312 312 311 312 312 312 318 325 334 343 344 339 340 344 348 347 344 345 345 344 343 341 340 340 339 339 338 339 339 338 337 336 336 335 335 336 336 336 336 337 336 336 336 337 337 337 337 337 335 334 335 336 336 336 335 335 333 333 332 330 329 328 327 327 327 327 327 327 327 326 326 326 326 325 325 325 325 323 322 321 321 321 320 320 320 319 320 320 320 320 319 318
309 312 313 313 312 311 312 310 312 314 314 319 321 328 343 346 338 335 341 348 348 347 348 346 344 342 341 340 339 339 338 337 338 339 338 337 336 335 335 335 335 335 335 336 336 336 336 336 336 336 336 336 336 335 334 335 336 335 335 335 334 333 333 331 329 328 327 327 326 326 325 325 325 325 324 324 324 323 323 322 322 321 321 320 320 320 319 319 319 318 318 318 317 317 317 316 316
310 312 313 313 312 312 312 311 312 314 312 316 321 331 344 346 338 335 339 344 348 350 349 347 344 341 340 340 339 338 337 337 338 338 337 336 335 335 335 336 336 335 335 335 336 336 336 335 335 335 334 334 334 334 334 335 335 335 334 334 333 333 333 330 328 327 326 326 325 324 324 323 323 323 322 322 321 321 320 320 319 319 319 318 318 318 318 317 317 316 317 317 316 315 314 315 314
310 311 312 312 312 312 313 312 311 312 313 315 319 330 342 345 339 335 337 340 345 349 347 344 342 340 339 340 338 337 337 337 337 336 336 336 335 335 335 336 336 335 335 335 335 335 335 334 334 334 334 333 334 334 335 335 335 335 334 333 333 333 332 330 327 326 325 325 324 322 322 321 321 320 319 319 319 318 318 317 317 317 317 316 316 317 316 315 315 315 315 315 314 313 313 313 312
311 312 311 310 313 312 313 316 313 312 316 315 317 327 338 344 341 336 339 342 344 347 346 343 340 339 340 339 338 337 336 337 336 336 336 336 335 336 336 336 335 335 335 335 335 334 334 333 333 334 334 334 334 335 335 334 334 334 333 333 333 332 331 329 326 324 323 323 321 320 320 319 318 317 317 317 316 316 316 315 315 315 315 315 315 314 314 313 313 314 314 313 313 312 312 311 310
311 311 310 310 313 312 310 314 313 313 318 317 319 323 328 338 343 339 339 342 342 344 346 344 340 339 340 339 337 337 336 336 336 336 337 336 336 335 335 335 334 334 334 334 333 333 333 332 333 334 333 333 333 333 333 333 333 333 333 333 332 331 330 327 325 322 321 321 319 318 318 317 316 315 315 315 314 314 314 314 314 314 314 314 314 313 312 312 313 312 312 312 311 311 310 310 310
309 310 312 312 313 312 311 313 316 319 322 322 321 318 317 329 339 337 338 340 341 342 343 342 340 338 339 339 338 337 336 336 336 337 337 336 335 334 334 334 333 333 333 332 331 331 331 331 332 333 332 332 332 332 332 332 332 333 332 331 331 330 328 326 324 321 320 319 319 318 317 315 315 314 313 313 312 312 312 312 312 312 312 312 312 311 311 312 312 311 311 310 310 309 309 309 309
309 308 312 313 313 313 313 316 320 321 323 322 318 314 314 324 335 336 336 338 340 340 340 340 338 337 338 339 338 337 336 336 336 336 336 335 334 333 333 333 332 332 331 330 329 329 329 329 330 330 330 330 331 331 331 331 331 331 330 330 329 328 327 325 323 320 319 319 318 317 315 315 314 314 312 311 310 310 311 310 310 310 311 311 311 310 310 311 311 310 310 309 308 308 308 308 308
308 309 314 315 315 316 316 319 321 318 321 320 314 315 317 322 332 337 334 335 339 339 338 338 336 336 338 339 338 337 336 337 336 335 335 334 333 333 332 332 331 330 329 328 327 327 327 327 327 327 326 327 328 329 329 329 329 328 328 327 326 325 324 323 321 319 319 318 318 316 314 314 313 312 311 309 308 309 309 309 309 309 310 310 310 309 309 309 309 308 308 308 307 307 306 307 306
309 310 314 314 316 321 321 324 329 327 323 319 316 321 323 323 331 337 335 336 338 338 337 337 336 336 338 339 338 337 337 337 336 335 334 333 333 332 332 331 330 329 327 326 326 325 325 325 325 325 325 325 326 326 326 326 325 325 325 324 323 322 322 321 319 318 318 318 317 315 314 313 312 310 309 308 307 308 308 308 308 308 309 309 309 308 308 308 308 307 307 307 306 306 306 305 305
314 310 311 310 315 324 323 321 326 327 322 320 325 329 329 333 336 337 339 340 339 339 337 335 336 337 339 339 338 337 337 337 336 335 333 332 332 332 331 330 329 327 326 325 325 324 324 324 324 323 323 323 323 323 323 322 322 322 322 321 321 320 320 319 318 317 317 316 315 315 314 312 311 309 308 307 307 307 307 307 307 308 308 308 308 307 307 307 306 306 306 305 305 305 304 304 303
316 309 310 312 312 322 330 327 323 321 321 325 331 332 333 338 339 338 341 342 340 339 338 335 336 339 340 339 338 337 336 336 335 334 333 332 331 331 330 329 328 326 325 324 323 323 323 323 323 322 321 321 321 321 321 320 320 320 319 319 319 319 318 318 317 317 316 315 314 314 312 311 309 308 307 306 306 306 306 306 307 307 307 306 306 307 306 306 306 305 305 304 304 304 303 302 302
314 311 312 317 316 317 323 325 320 320 322 320 321 328 335 336 337 340 342 341 340 340 338 337 338 341 340 339 338 337 336 335 334 333 332 331 331 330 329 328 326 325 324 323 322 322 322 321 321 321 320 320 319 319 319 319 319 318 318 318 317 317 317 316 316 315 315 314 314 312 311 309 308 306 306 305 305 304 305 305 306 307 307 306 306 306 305 305 305 305 304 304 303 303 302 301 301
312 312 311 318 326 321 316 318 320 320 324 321 317 326 337 337 336 340 341 340 340 340 338 338 339 340 340 339 338 337 336 335 334 333 331 330 330 329 328 326 325 324 322 322 321 321 321 320 320 320 319 318 318 318 318 317 317 317 317 316 316 316 315 315 315 314 314 313 312 310 309 308 306 305 305 304 304 304 303 304 306 306 306 305 305 305 305 304 304 304 303 303 302 302 302 301 300
311 312 311 312 316 316 316 318 318 319 326 329 327 331 338 339 336 337 339 339 339 338 338 338 338 339 339 338 337 336 336 335 333 332 331 330 329 328 327 326 324 322 321 321 321 320 320 319 319 318 318 317 317 317 317 316 316 316 316 315 315 314 313 313 313 313 312 311 310 309 307 306 305 304 304 303 303 302 302 303 305 306 306 305 305 305 304 304 304 303 303 302 302 302 301 301 300
315 317 317 316 312 314 320 319 315 320 328 330 330 333 339 341 336 335 338 338 337 338 338 338 338 338 339 338 337 336 335 334 333 332 330 329 329 328 327 325 323 321 320 319 319 319 318 318 318 317 316 316 316 316 316 316 315 315 315 314 313 312 312 312 312 312 311 309 308 307 306 305 304 303 303 302 301 300 300 301 304 305 306 305 305 304 304 304 303 303 302 302 302 301 301 300 300
Wind_Speed
16 16 15 15 16 13 7 3 2 3 2 1 3 2 5 5 3 4 7 10 5 2 2 2 4 5 5 6 8 4 3 4 5 5 3 2 17 32 29 30 36 32 31 29 26 23 22 23 20 20 21 21 23 25 24 24 23 22 20 19 20 20 20 19 19 18 18 17 16 16 16 16 16 15 15 15 15 14 13 12 12 12 13 13 13 12 12 11 11 10 10 10 10 11 11 11 12
15 14 12 13 12 6 2 3 2 2 3 2 4 3 6 6 5 5 7 9 2 3 4 5 7 6 7 7 7 5 4 3 3 4 1 12 24 26 29 35 36 34 33 30 27 25 24 23 21 21 20 21 24 25 24 23 23 21 20 20 20 21 20 19 18 17 17 17 16 15 15 16 16 15 15 15 14 13 12 12 11 12 12 12 11 11 11 10 10 9 9 9 10 11 12 13 14
13 12 13 11 6 4 1 3 2 0 2 3 4 4 5 8 9 5 7 9 3 4 4 5 5 4 3 3 2 3 2 2 4 4 4 17 19 22 35 36 36 35 33 31 28 27 25 23 22 21 20 22 24 25 24 23 23 21 21 20 21 22 20 19 17 17 17 16 16 15 15 15 15 15 15 15 14 13 12 11 11 11 11 10 10 10 10 10 9 9 8 8 11 12 14 16 16
11 11 13 8 4 3 4 2 2 3 1 3 4 5 5 8 10 6 8 11 5 2 3 4 2 3 1 3 0 2 3 1 4 5 7 12 14 25 36 36 37 35 33 31 29 28 26 24 22 20 20 22 22 24 24 23 22 21 21 21 22 22 20 19 17 17 16 16 16 15 15 15 15 14 14 14 13 12 11 11 10 10 10 9 8 8 9 9 8 7 7 8 10 12 15 18 17
9 10 9 4 3 1 2 1 1 3 3 4 3 5 6 8 12 10 10 12 9 9 5 4 2 3 2 2 1 0 3 4 6 8 11 14 23 32 33 35 37 34 32 30 29 28 26 23 22 21 20 21 21 23 23 23 22 22 22 21 23 22 20 19 17 17 16 16 15 15 15 15 15 14 13 13 13 12 11 10 10 9 9 8 7 8 9 8 7 7 7 7 9 13 17 18 17
8 7 4 2 2 1 2 1 2 3 5 4 3 7 9 11 13 12 13 13 10 11 6 3 4 4 2 2 1 1 3 7 7 9 16 23 32 34 33 35 34 32 31 29 28 27 25 23 22 22 21 20 20 21 22 22 22 22 22 22 23 22 20 18 17 17 16 16 15 16 15 14 14 13 13 12 12 11 10 9 8 8 8 6 7 8 8 8 7 7 7 8 10 14 18 18 16
7 6 2 2 1 1 3 3 5 5 5 6 4 8 11 13 13 12 14 13 8 8 3 4 6 8 1 1 1 2 5 9 10 13 23 31 35 35 35 34 33 32 30 28 28 26 24 23 22 22 20 20 20 21 21 22 22 21 22 23 23 22 20 18 17 16 16 15 15 16 15 14 13 13 12 11 11 10 9 9 8 8 7 6 7 7 7 8 8 8 8 9 11 14 17 17 15
5 2 1 3 1 2 2 4 5 4 5 6 6 8 12 14 14 12 13 10 5 5 1 6 6 6 2 1 1 4 9 12 16 24 31 36 37 35 34 34 34 31 29 29 27 25 23 23 23 20 20 19 20 21 21 21 21 20 22 23 22 21 19 18 17 16 16 15 15 15 14 14 13 12 11 10 9 9 8 8 8 7 6 6 6 7 8 8 7 8 9 10 12 14 16 15 14
3 1 1 2 1 1 1 3 4 4 5 5 6 9 11 13 14 13 15 13 5 3 4 7 3 5 2 3 3 3 11 19 26 31 34 36 35 34 34 34 34 32 29 29 26 24 24 23 22 20 19 18 19 20 21 20 19 20 21 21 20 20 18 17 16 16 16 16 15 14 13 13 11 10 9 8 8 7 7 7 6 6 5 5 6 7 8 7 7 8 9 10 12 14 15 14 13
2 0 1 1 2 2 4 4 4 4 5 6 7 10 10 12 14 13 14 16 9 4 5 2 3 6 6 4 3 2 13 28 32 31 31 33 33 35 34 33 33 33 31 28 25 25 24 22 21 20 18 17 18 20 21 20 20 20 20 20 20 19 18 17 16 15 16 15 14 13 12 11 10 8 7 6 5 5 5 6 6 6 6 6 6 7 8 7 7 7 9 10 11 13 14 13 12
1 2 2 2 2 4 5 5 6 5 6 5 6 9 10 14 13 13 13 15 11 4 6 3 5 7 8 3 2 8 21 31 33 29 28 31 33 34 33 32 32 32 31 28 26 25 23 21 20 19 17 17 19 21 22 21 20 20 20 20 19 18 17 17 16 15 15 14 13 12 11 10 9 7 6 4 4 3 4 4 5 6 7 7 8 8 8 7 7 8 8 9 10 12 13 13 12
1 2 3 3 4 5 5 5 6 6 7 5 7 8 10 13 10 11 14 15 9 6 10 6 8 8 6 2 2 12 22 25 29 30 30 32 33 33 33 32 31 29 29 28 26 25 23 21 20 18 17 18 21 22 22 21 21 20 20 19 18 17 17 16 16 15 14 13 12 11 10 9 8 7 5 4 3 3 3 3 4 6 8 8 9 9 8 7 7 7 8 9 9 11 12 12 12
2 3 5 3 4 4 5 5 6 5 5 4 7 10 11 10 9 13 15 16 11 9 9 8 11 7 5 2 3 9 14 19 29 33 33 34 33 33 33 32 30 29 28 28 27 25 23 22 20 18 17 19 21 22 21 21 20 19 19 18 17 17 16 16 15 14 13 12 11 10 9 8 7 6 5 4 4 4 3 3 3 5 8 9 10 10 9 8 7 7 7 8 9 9 11 12 12
4 3 5 3 3 4 4 3 4 4 5 6 8 11 11 7 9 12 10 11 11 8 3 9 13 9 5 4 4 5 10 22 32 34 34 33 33 34 33 32 31 30 29 28 27 25 24 22 21 19 17 19 21 21 20 20 19 19 18 17 17 16 16 15 14 14 12 12 11 10 9 7 6 5 5 5 5 5 4 3 3 5 7 9 11 11 9 8 7 7 6 7 8 8 8 10 11
6 1 4 3 2 4 4 4 4 5 5 7 11 10 7 8 10 8 5 5 3 5 9 8 6 6 7 9 7 8 16 28 34 35 35 32 32 33 32 32 31 30 29 27 26 25 23 23 22 20 19 21 22 22 20 19 19 18 17 17 17 16 16 15 14 13 12 12 11 10 8 7 6 5 6 6 6 7 7 5 4 5 7 9 11 11 10 8 7 6 6 6 6 7 6 7 10
5 2 2 3 4 4 4 5 5 6 5 9 13 6 7 12 9 7 6 5 4 5 8 5 4 3 10 11 10 18 27 33 35 36 35 32 31 31 30 30 29 28 27 25 25 24 23 23 22 20 20 21 22 21 20 18 18 17 17 17 17 16 16 15 14 13 12 11 10 9 7 6 6 6 6 7 8 9 8 8 6 6 7 9 10 11 10 8 7 6 5 5 5 5 5 5 7
3 3 4 3 4 5 4 5 5 5 5 11 12 5 8 13 6 4 4 5 8 4 3 2 1 3 7 9 19 33 35 35 37 37 33 30 28 27 26 26 27 26 24 23 23 23 22 21 20 20 20 21 21 20 19 18 17 17 17 16 16 16 15 15 14 12 11 10 9 8 7 6 6 7 7 7 9 10 10 10 9 8 8 9 10 10 9 7 6 5 4 4 4 4 3 3 4
3 3 5 5 5 6 6 8 7 5 6 11 8 5 8 7 4 3 5 7 7 7 6 6 8 9 11 19 31 37 36 36 36 33 29 25 24 22 21 23 25 24 23 21 19 20 20 19 19 18 19 20 20 19 18 18 17 17 17 16 16 16 15 14 13 12 11 10 9 8 7 6 6 6 6 8 9 10 10 11 11 10 9 9 9 9 8 6 5 4 3 2 2 3 2 1 2
5 4 5 7 6 6 7 8 7 5 8 11 6 6 8 5 3 1 1 1 5 8 6 6 11 12 16 23 31 33 33 34 32 31 26 21 22 20 20 21 23 23 23 21 18 18 18 18 18 17 19 20 20 19 18 18 17 17 17 17 16 16 15 13 13 12 11 10 9 8 7 6 5 5 5 7 9 10 9 9 11 12 11 10 9 7 6 5 3 3 1 1 2 2 2 2 0
5 4 5 7 6 7 8 8 9 8 10 10 7 7 7 6 4 1 3 3 4 6 3 5 10 11 15 19 25 29 29 28 28 28 24 22 21 20 20 21 23 25 24 22 20 19 19 20 19 18 19 20 22 19 17 17 17 17 17 17 17 16 14 13 12 11 11 10 9 8 7 6 5 4 4 5 7 8 7 7 9 10 11 11 10 7 6 4 3 2 2 2 2 2 2 2 1
4 6 7 6 7 8 11 10 11 11 11 8 5 7 8 7 3 0 4 4 4 3 3 6 13 14 15 14 15 18 17 20 24 25 23 22 21 21 22 23 28 30 28 25 23 21 20 21 21 21 20 21 22 19 17 17 17 17 17 17 17 16 14 12 11 10 10 9 8 7 6 5 4 3 3 2 3 5 5 5 6 6 6 7 7 7 5 4 3 3 3 3 4 4 4 5 5
3 7 7 5 7 8 11 11 11 13 13 6 2 5 7 6 3 4 2 6 3 4 3 9 15 15 15 14 14 15 11 8 14 20 21 19 21 25 25 26 29 30 30 29 26 23 21 21 21 22 20 20 21 20 17 17 17 17 18 17 17 15 14 12 11 10 9 8 7 6 5 4 3 3 2 2 1 1 2 3 4 4 4 3 3 4 4 3 2 3 4 5 5 6 7 9 9
5 6 6 7 8 7 8 9 11 13 11 5 1 4 3 3 4 5 4 3 4 4 6 11 14 14 17 18 18 16 12 10 11 13 15 17 20 22 23 24 25 28 32 32 30 26 24 23 21 21 21 21 22 20 17 18 19 17 17 16 15 15 14 12 11 11 9 7 7 5 5 4 4 5 4 4 3 1 0 2 3 4 4 3 3 4 4 3 2 3 4 5 6 7 8 9 10
8 7 6 7 9 9 9 8 10 11 10 6 2 5 7 3 2 2 4 4 2 5 10 13 14 15 18 19 18 16 16 15 15 17 15 12 14 18 23 25 24 28 30 28 28 26 24 23 22 22 21 22 22 19 19 19 18 16 15 15 14 14 13 12 11 10 9 6 5 5 5 4 5 7 6 4 2 1 1 1 2 2 3 3 4 4 4 3 3 3 4 6 6 7 8 10 11
11 10 8 7 7 9 11 11 13 12 9 5 3 8 9 1 4 3 3 3 3 12 13 14 15 15 16 17 17 15 16 18 20 23 20 14 16 22 25 26 26 29 27 25 29 26 21 21 22 22 20 21 21 20 20 19 17 16 15 14 14 14 13 11 10 10 8 6 6 6 6 3 5 8 6 3 2 1 1 2 2 1 1 2 3 4 5 5 5 5 6 7 8 9 9 10 12
8 10 9 8 9 8 9 12 15 15 8 5 6 9 7 7 7 4 1 1 5 12 13 13 15 15 13 12 12 12 13 15 16 21 25 25 26 26 26 27 27 29 28 28 34 31 24 23 22 20 21 23 23 21 20 18 16 16 15 15 14 14 13 11 11 11 10 9 9 8 6 3 6 8 6 5 3 3 3 4 4 3 1 1 2 3 5 5 6 6 7 8 8 9 9 10 12
4 9 10 11 11 9 9 11 13 12 8 6 8 8 8 9 6 2 3 4 6 12 12 11 13 13 11 9 8 9 11 15 18 20 22 24 27 28 29 31 30 31 32 33 37 36 31 28 25 22 23 24 24 22 19 18 17 16 15 14 14 14 13 12 12 12 12 11 11 9 7 6 7 7 6 6 5 4 5 4 4 3 2 1 1 2 3 4 5 6 7 9 9 9 10 10 11
6 8 9 12 13 11 11 12 11 7 6 7 9 8 8 6 5 6 8 6 7 12 12 10 12 10 9 8 8 8 8 14 20 19 19 19 22 27 30 33 37 37 36 37 38 37 35 31 29 27 26 25 24 22 21 20 20 19 16 15 16 16 15 15 15 14 13 12 10 9 8 7 6 6 7 6 5 4 4 4 3 2 1 1 1 2 4 5 7 7 7 9 9 9 10 10 10
8 9 8 11 11 13 14 13 11 7 5 7 8 7 6 3 5 10 11 8 6 11 13 10 10 9 8 7 6 6 8 15 17 13 14 18 22 27 29 33 41 39 37 38 38 37 36 34 33 31 29 28 24 23 24 23 21 21 18 15 17 18 18 18 17 17 15 12 10 8 7 7 7 7 6 5 4 3 3 3 2 1 1 0 2 3 5 6 6 6 6 7 9 9 10 10 11
7 8 7 7 7 11 14 12 10 8 6 7 8 5 5 3 5 11 10 10 10 10 10 9 8 7 6 6 6 7 9 13 15 15 17 22 26 29 31 33 39 40 37 38 38 37 36 36 36 31 29 29 26 24 25 24 23 22 20 17 18 19 19 19 18 17 14 12 11 9 8 7 7 6 5 5 4 3 3 2 2 2 1 1 3 4 5 6 5 5 6 7 8 10 10 11 11
4 4 5 6 5 7 9 10 10 8 6 8 9 6 5 2 7 10 8 10 13 12 9 9 8 7 6 5 6 7 8 9 12 16 19 24 28 30 32 33 37 40 39 39 39 38 37 37 36 31 29 30 28 27 26 24 24 22 21 20 19 18 17 17 17 15 13 11 10 9 8 7 6 5 5 4 4 4 3 3 3 2 0 1 2 4 4 4 4 4 6 7 9 9 9 10 10
3 4 5 5 5 4 6 10 11 10 5 7 10 5 3 4 7 7 7 8 11 13 9 9 9 7 8 7 8 8 9 10 11 15 17 21 25 28 31 33 36 40 40 39 38 37 35 35 35 32 31 30 29 28 25 23 23 21 20 20 18 17 15 15 14 13 11 10 9 9 8 7 5 4 3 4 4 4 2 3 3 1 0 2 3 3 3 2 3 4 5 7 9 8 9 10 10
3 4 5 4 5 4 5 7 11 12 7 6 8 5 1 4 6 6 6 6 11 13 9 10 9 7 8 8 8 8 8 10 10 13 15 16 20 24 29 31 33 35 35 36 37 36 35 34 34 33 32 31 30 28 26 24 23 21 19 18 17 16 14 12 12 11 10 10 9 8 7 6 4 3 3 3 4 3 3 2 2 1 1 2 3 2 2 2 3 4 5 6 7 8 9 10 10
4 2 4 4 5 5 4 5 8 11 10 7 6 5 4 6 10 9 6 8 11 13 11 11 9 7 8 8 8 7 9 9 8 10 14 14 16 19 21 23 24 24 24 26 30 33 34 34 33 32 31 30 29 28 26 24 23 21 19 17 16 16 13 11 11 11 10 9 9 8 7 5 4 4 3 3 3 3 4 4 4 4 4 3 3 3 4 4 4 5 5 6 6 7 8 10 10
4 3 3 4 5 7 7 4 5 9 10 8 6 5 5 8 10 8 7 8 11 12 11 11 10 9 9 8 8 8 10 9 7 11 15 15 16 16 17 18 20 20 17 18 21 25 28 29 30 29 29 28 27 27 26 24 22 21 19 16 15 15 14 12 11 10 9 8 8 7 6 5 5 5 5 5 5 6 7 8 8 8 7 5 5 6 7 7 6 6 6 5 5 6 8 10 9
5 6 4 5 5 5 6 5 6 8 8 8 7 6 8 11 9 8 8 7 9 11 9 9 9 9 9 8 8 9 10 8 10 15 17 16 17 17 18 20 21 19 17 18 20 21 23 25 26 27 26 26 26 26 25 24 23 21 19 17 16 15 14 13 12 10 9 8 7 6 6 7 8 8 9 10 11 11 11 10 10 9 8 7 8 10 10 9 8 7 7 6 6 6 8 11 9
4 4 5 6 5 4 5 6 7 7 6 7 8 8 11 13 11 10 10 8 10 11 10 10 10 10 10 10 10 9 9 8 12 17 17 17 18 19 20 21 21 19 18 19 20 20 21 22 24 24 25 25 25 25 25 25 24 22 20 18 18 17 14 14 13 10 9 9 9 10 11 12 13 12 13 13 14 13 13 11 10 9 9 9 11 11 11 10 8 7 7 7 7 8 11 14 12
7 4 4 5 5 5 5 6 8 7 6 5 7 10 11 13 12 11 11 11 12 13 13 13 14 13 11 11 12 11 8 8 11 14 16 18 18 18 19 19 20 19 18 19 19 20 21 21 21 23 24 24 24 24 25 25 24 23 22 21 20 18 15 14 14 12 12 13 13 15 16 16 16 15 14 14 14 12 12 11 10 11 11 11 11 11 10 9 9 8 7 8 9 10 13 16 15
7 4 4 5 4 4 5 5 6 5 5 4 8 10 9 8 9 9 10 10 9 10 12 14 16 15 13 13 13 11 10 10 11 11 14 19 18 17 18 18 19 18 17 17 19 20 21 20 21 22 23 24 24 23 24 24 22 22 22 22 21 19 16 14 15 16 17 17 17 18 18 17 16 15 14 13 13 12 11 11 11 11 11 11 10 9 9 9 10 10 10 9 8 9 11 14 16
7 5 5 4 4 4 4 6 5 4 5 5 8 7 4 5 6 6 5 6 7 7 8 10 12 14 14 14 13 14 14 12 11 10 10 16 17 16 17 18 18 17 17 17 19 20 20 20 20 21 23 23 23 22 22 22 21 20 21 21 20 18 17 17 19 20 20 20 20 19 18 16 15 14 13 12 12 12 11 11 11 11 12 10 9 9 10 10 11 11 11 11 9 9 10 12 14
8 7 6 4 4 4 4 6 6 4 3 4 10 5 1 5 7 6 5 6 9 8 9 10 9 11 13 12 12 13 14 12 12 11 9 12 16 17 18 18 18 18 18 18 18 19 19 19 19 20 22 21 22 21 21 22 22 21 21 21 19 19 20 21 22 21 21 21 20 19 17 14 13 12 11 10 10 10 10 10 9 10 10 10 9 10 10 11 11 11 11 11 10 10 9 9 11
8 8 7 7 5 5 6 5 3 4 3 3 9 5 1 3 3 4 5 8 9 9 11 13 12 11 12 12 11 11 11 11 12 13 12 12 15 17 18 19 19 18 18 18 18 18 19 18 18 19 21 21 21 21 21 22 23 24 23 22 21 21 20 20 21 21 21 21 20 18 16 13 11 11 10 9 8 8 9 9 8 8 8 9 9 9 9 10 11 12 12 11 11 9 7 9 11
7 5 9 9 6 7 7 1 2 5 4 6 9 6 3 2 3 6 5 9 11 10 12 13 12 11 11 11 10 10 11 10 10 10 12 12 14 17 17 18 20 19 18 18 17 17 18 18 17 19 21 21 22 21 20 21 23 23 23 22 23 23 21 19 21 21 21 20 18 16 15 13 11 10 9 9 8 8 8 9 8 7 7 8 7 7 9 11 12 13 12 12 12 11 10 12 14
6 5 9 9 8 9 8 1 1 5 3 5 10 6 4 4 8 10 8 9 11 14 16 13 10 11 11 10 10 11 12 11 10 9 10 11 14 17 17 18 19 19 19 18 17 18 18 17 17 18 21 21 22 21 20 21 23 23 22 22 23 24 23 22 21 21 20 19 17 15 13 12 11 9 9 9 8 8 7 7 7 7 7 8 8 9 11 12 13 13 12 13 14 15 15 16 17
5 5 7 7 7 8 6 4 5 5 1 5 8 6 4 3 6 7 5 5 8 13 18 14 12 13 11 10 11 11 11 11 11 10 10 11 14 18 18 18 19 19 19 18 17 18 17 17 17 19 21 20 20 20 19 19 21 21 22 23 23 23 24 24 22 21 20 17 16 15 13 12 11 10 9 8 8 8 7 7 7 7 9 10 10 11 12 12 13 13 13 14 16 18 17 17 18
5 6 5 3 4 4 4 5 5 3 3 6 9 7 5 2 5 6 4 5 7 10 13 12 12 13 10 11 12 12 10 10 10 10 10 12 15 17 19 19 19 18 18 19 18 18 18 17 17 19 19 19 19 18 18 18 18 20 22 25 25 24 25 24 22 21 20 17 17 16 14 12 11 10 10 9 9 8 8 9 9 10 11 11 12 13 13 13 13 14 15 16 17 18 17 17 18
4 6 5 3 3 1 1 4 3 2 5 7 12 11 6 3 5 8 9 12 15 13 10 11 12 11 11 12 12 12 11 9 10 9 9 13 16 18 19 19 20 20 20 20 19 18 18 17 18 19 19 18 18 18 18 18 20 21 23 25 26 26 26 24 23 22 20 18 18 17 15 14 13 12 11 11 11 10 10 10 11 12 13 13 14 14 14 15 15 16 16 16 17 18 18 18 19
5 6 4 2 3 3 1 3 2 5 7 7 12 12 8 6 6 9 12 13 18 18 14 16 16 13 12 13 12 12 11 10 10 10 9 11 13 16 19 19 20 21 20 21 20 19 19 18 19 20 18 18 19 19 19 20 22 24 24 25 26 26 25 23 23 22 20 20 19 18 17 16 16 15 14 14 12 11 11 12 13 13 14 15 15 16 16 16 16 16 17 17 18 19 19 19 19
7 5 4 4 2 0 2 4 3 6 6 6 10 10 7 6 7 16 17 12 17 19 18 20 20 16 14 13 13 11 10 11 10 9 9 9 9 13 17 19 20 21 21 21 21 21 21 21 22 22 19 18 19 20 21 22 23 24 24 25 25 24 23 23 23 22 21 20 19 18 18 17 16 16 15 15 13 12 13 14 14 15 15 15 15 16 16 15 16 16 18 19 19 19 19 20 21
10 7 5 5 4 3 5 5 2 3 5 6 8 9 5 3 4 16 20 16 20 20 16 18 18 17 16 14 13 11 11 12 10 9 10 9 10 14 17 19 20 20 21 22 22 23 24 23 24 24 23 21 22 22 23 24 24 24 25 25 24 24 24 23 23 22 21 20 18 18 18 17 17 16 16 15 13 12 14 15 15 16 16 16 16 16 16 16 16 17 19 20 20 19 19 21 23
9 5 5 5 5 5 5 4 3 4 4 4 5 7 5 2 4 15 21 18 18 16 10 10 12 13 14 12 13 12 12 11 9 9 10 10 13 17 19 20 21 21 22 22 23 23 24 24 25 26 25 24 25 25 25 25 26 25 25 24 24 24 24 23 23 22 21 19 18 18 18 17 17 16 15 14 13 13 14 15 15 16 16 16 16 16 17 17 17 18 19 20 20 19 20 22 23
6 4 5 5 6 5 3 3 5 5 2 1 3 3 4 3 1 6 14 12 11 13 10 10 11 12 12 12 13 12 11 10 10 10 10 11 15 19 20 21 21 21 22 23 24 24 25 25 25 25 24 24 25 25 25 25 25 25 24 24 24 24 24 24 23 22 19 18 18 18 18 17 16 16 15 14 14 13 14 15 16 16 16 16 16 16 17 18 18 19 20 20 21 20 21 23 22
4 5 6 5 6 6 3 3 2 3 4 3 2 0 1 2 5 4 11 11 11 13 12 12 13 14 13 12 12 12 11 11 11 11 10 11 16 19 21 22 21 22 23 24 24 24 25 25 24 24 23 23 24 24 24 24 25 25 24 24 24 23 23 23 23 21 19 18 18 17 17 17 16 15 15 15 14 14 15 15 16 18 17 17 18 17 18 18 19 20 21 21 21 20 22 23 22
5 6 7 3 3 3 4 3 1 3 4 4 0 4 3 1 2 3 11 13 11 13 13 13 13 14 13 12 12 13 13 12 12 12 12 12 16 19 20 21 22 23 24 25 25 24 25 24 24 23 22 22 23 23 24 24 24 24 24 24 23 22 22 22 21 20 20 20 19 18 18 17 16 16 16 15 15 15 15 16 17 19 19 19 19 19 19 19 19 21 21 21 20 19 21 23 22
5 6 7 6 4 4 1 2 2 3 4 3 2 3 3 3 5 8 12 14 14 14 14 13 14 15 14 12 13 14 13 11 12 12 11 12 16 19 21 21 23 25 26 26 26 25 24 23 23 22 21 21 21 22 23 22 23 23 23 22 21 21 20 20 19 20 20 20 20 20 20 19 18 17 16 15 14 14 15 16 17 19 20 20 20 20 20 20 20 21 21 21 20 19 21 23 22
3 3 5 5 5 4 3 3 3 4 4 2 1 1 2 3 8 15 17 18 18 16 14 14 16 17 15 13 13 14 13 12 11 12 11 12 16 20 22 23 24 26 27 27 27 25 24 23 22 21 20 20 20 21 21 21 21 22 21 21 19 18 17 17 19 20 20 21 22 22 21 20 19 17 16 15 14 14 14 16 17 19 20 21 21 21 21 21 21 21 20 21 19 19 21 22 22
4 3 4 4 3 3 2 2 2 4 4 3 3 2 5 5 8 17 20 19 20 20 17 16 16 17 16 15 15 14 14 14 12 13 12 13 17 21 23 24 25 26 27 28 27 26 25 23 22 22 21 20 19 20 20 20 20 20 20 19 17 15 17 20 21 22 23 24 23 22 22 21 20 18 16 14 13 12 13 15 17 18 19 20 21 21 21 20 21 21 20 20 19 20 21 21 21
6 4 4 5 5 3 3 1 3 2 4 4 5 3 6 5 6 14 18 18 19 21 20 17 16 18 17 15 16 16 15 15 13 13 13 13 17 21 23 24 25 26 26 27 27 27 26 24 23 22 21 20 19 19 19 20 20 19 18 18 18 19 22 24 24 24 25 25 24 23 23 22 20 18 15 13 12 12 12 14 17 18 19 20 20 20 20 20 22 22 20 19 18 19 20 20 20
Wind_Direction
325 329 337 329 326 332 341 62 37 331 65 348 270 291 272 248 268 316 318 296 296 330 359 87 120 132 138 136 156 133 81 155 169 156 195 215 144 154 161 158 155 152 150 149 150 151 154 153 151 148 143 141 140 141 141 141 140 139 137 136 135 132 127 121 120 116 113 110 107 109 111 115 115 118 119 120 119 115 112 109 108 102 98 97 96 91 84 75 70 70 74 82 92 103 111 113 111
330 330 334 330 335 351 316 73 72 322 32 320 279 240 271 292 293 319 306 288 342 22 12 70 82 93 110 117 132 94 50 357 138 144 100 133 135 149 159 156 155 152 150 149 150 152 154 152 151 147 142 141 141 142 142 142 141 140 139 138 137 133 127 123 121 116 111 109 109 110 114 117 118 121 122 122 121 117 116 114 111 105 99 98 99 95 89 81 74 71 68 74 87 103 114 117 118
333 332 339 343 355 42 34 40 86 262 34 270 275 251 277 298 289 315 305 300 30 109 112 96 68 61 78 66 30 77 108 354 99 98 108 139 136 149 155 154 154 152 150 149 151 152 152 152 151 146 142 142 141 143 143 143 142 141 141 140 138 132 127 125 121 114 111 110 110 111 114 117 119 123 125 125 123 120 117 114 111 107 101 98 99 98 93 84 74 70 65 68 85 105 117 122 125
328 330 341 0 16 28 58 46 151 149 191 245 270 266 268 282 286 305 298 301 315 222 176 126 59 329 341 111 81 79 135 110 116 117 128 155 147 148 150 149 151 149 148 149 151 151 150 152 151 146 144 143 141 143 143 143 143 142 142 141 137 132 130 127 120 114 112 113 113 114 116 117 120 124 127 126 125 123 120 117 112 108 105 105 105 104 99 92 86 79 69 70 89 108 121 128 132
318 325 339 41 77 9 90 98 144 138 200 218 251 269 271 278 288 296 290 291 300 292 267 152 116 332 11 105 172 132 140 119 130 136 125 143 146 146 146 146 148 146 147 148 150 150 148 150 149 147 145 143 142 142 144 144 145 144 143 141 137 134 133 129 121 117 115 117 117 117 118 118 122 126 129 128 129 127 125 120 116 115 116 116 112 110 105 100 96 88 81 81 98 117 128 134 137
318 339 6 81 115 178 117 171 211 218 219 190 237 276 278 280 284 288 286 287 294 290 282 137 130 101 49 352 25 74 129 123 130 141 130 139 147 146 144 144 145 143 146 148 149 148 146 150 149 147 145 143 143 141 143 145 146 144 143 139 136 136 134 129 122 119 119 120 119 119 120 121 124 128 130 131 133 131 127 123 121 122 117 109 104 104 100 95 90 86 86 89 107 126 134 138 140
344 357 36 55 352 77 118 190 206 232 237 199 225 266 273 279 280 283 285 290 296 285 346 94 125 108 149 327 39 359 89 126 130 138 141 144 146 144 142 143 142 142 146 148 148 146 146 150 148 146 145 143 143 140 141 143 144 142 140 137 136 136 134 129 123 121 123 122 122 122 123 124 126 129 133 136 135 133 131 127 125 119 108 99 101 103 98 92 87 86 88 93 113 131 138 141 142
6 2 70 88 2 354 135 208 213 216 242 223 225 246 260 272 276 280 277 277 278 278 85 150 144 102 270 44 93 341 76 125 135 140 144 143 142 141 143 144 141 141 146 148 146 144 146 148 146 145 144 143 142 140 141 141 141 138 137 136 135 136 132 127 124 125 125 125 125 125 127 127 129 132 137 139 136 136 135 133 129 125 118 111 112 111 104 93 88 87 90 101 118 134 140 143 143
32 57 39 97 161 295 235 245 245 226 245 237 238 247 254 266 271 276 274 273 258 229 184 185 161 114 200 57 100 6 82 123 132 138 142 140 141 142 145 146 142 142 144 146 145 144 146 145 143 143 144 143 141 139 140 139 137 136 135 134 135 135 131 127 126 128 129 130 129 129 130 129 131 133 135 135 135 138 140 144 144 147 139 121 121 118 108 94 89 88 88 102 122 138 143 146 146
40 332 120 125 144 247 260 259 258 242 241 226 233 245 252 260 264 267 272 275 263 211 205 176 66 119 135 96 96 67 116 127 128 132 139 140 142 144 144 145 145 143 144 145 145 145 144 142 140 142 144 143 141 139 139 138 136 135 135 136 137 135 131 129 130 132 133 133 132 131 130 129 129 127 125 124 131 141 146 153 156 160 148 131 133 127 113 99 92 90 87 98 124 142 148 150 149
43 284 138 163 177 225 237 243 252 251 256 248 246 247 252 258 263 271 271 275 275 198 189 129 105 130 115 111 74 119 131 130 130 134 140 142 143 144 142 143 145 144 145 144 144 143 139 139 139 141 143 142 141 140 139 138 137 136 138 139 137 135 133 133 136 137 137 135 134 131 129 127 123 116 112 112 121 135 145 152 150 147 141 137 140 135 119 106 98 95 90 94 120 145 153 154 151
131 231 119 164 194 213 219 227 248 256 270 277 264 255 251 258 267 269 264 268 272 171 189 175 149 142 106 126 105 127 132 130 134 137 141 143 142 142 142 142 143 144 144 143 141 139 138 139 139 140 141 140 139 138 138 138 137 137 138 140 138 138 137 138 140 140 139 136 133 130 128 126 120 113 108 107 107 109 119 137 145 138 137 140 144 140 128 115 105 102 95 91 110 142 158 159 156
176 185 129 179 199 198 213 220 247 267 277 260 253 256 251 259 262 256 261 261 242 202 211 170 149 133 105 127 109 134 133 131 136 137 141 141 141 141 141 142 142 143 142 142 140 138 138 140 139 138 139 138 137 136 136 137 137 138 140 142 142 141 141 142 142 141 139 135 132 132 131 127 121 114 105 98 93 91 92 113 140 142 140 144 147 144 135 124 113 106 100 92 98 127 157 165 162
192 183 142 201 222 185 203 212 237 253 265 260 254 257 258 261 253 250 254 255 239 214 169 133 137 109 105 135 127 155 134 134 136 137 140 139 139 138 138 140 141 140 139 140 139 138 139 138 137 138 144 142 139 137 138 139 140 143 145 144 144 144 144 144 143 141 138 137 137 138 135 129 121 109 96 89 85 83 78 89 126 142 145 147 151 149 142 131 118 108 99 93 91 104 140 165 171
185 189 138 186 226 185 212 205 203 229 252 261 254 259 276 269 254 256 209 194 233 169 114 121 147 104 153 172 166 170 140 137 136 136 137 134 135 134 135 137 136 136 136 138 137 138 138 136 139 145 151 147 143 141 140 144 146 147 147 146 147 146 145 143 143 143 143 145 143 140 136 128 118 103 90 86 84 80 70 75 99 129 143 149 154 153 146 136 122 110 98 89 87 90 110 152 176
176 164 163 193 209 198 221 204 197 229 249 252 256 281 294 273 254 256 236 151 112 150 121 145 214 137 172 180 155 147 140 138 135 134 132 129 128 127 129 130 130 132 133 135 136 137 137 138 145 151 153 150 147 143 144 148 149 149 148 149 149 146 144 144 146 149 150 148 144 141 137 127 115 98 89 86 85 77 69 71 84 114 135 148 156 156 150 141 128 113 100 89 81 83 89 121 169
159 166 218 216 202 204 207 196 194 206 233 251 264 289 262 271 272 260 298 69 96 119 72 93 41 71 150 147 134 138 138 137 134 132 128 126 125 123 124 124 125 126 127 131 133 136 138 143 149 152 152 152 150 146 148 149 149 151 150 151 149 145 145 148 153 154 153 149 147 144 136 123 106 97 90 84 84 78 72 70 79 103 125 142 153 157 152 145 136 122 106 89 72 68 71 97 151
178 177 209 215 203 199 192 197 208 192 223 249 265 275 245 265 287 284 360 37 72 74 44 60 59 62 102 119 130 136 138 137 135 132 129 129 128 125 124 122 122 120 121 122 127 135 139 145 150 152 152 155 154 150 152 151 153 154 152 154 150 149 151 155 159 157 155 152 147 141 135 125 107 99 87 78 82 82 76 72 75 87 106 127 143 152 152 149 143 131 110 81 58 41 27 57 143
196 186 197 215 203 202 206 207 224 211 232 255 278 281 260 241 215 266 7 54 92 86 64 72 80 90 110 122 131 136 139 138 137 134 129 130 128 125 121 119 119 115 115 118 126 137 142 148 153 156 158 160 160 156 156 156 157 156 156 156 154 156 158 162 162 158 156 149 141 138 136 131 113 102 91 77 76 82 81 76 77 83 93 103 118 134 143 148 145 136 111 51 15 12 7 1 130
204 194 210 225 201 217 229 221 238 238 242 260 289 290 278 250 214 196 177 135 90 115 114 101 109 123 130 134 138 141 142 139 136 130 124 125 122 120 121 122 120 116 120 127 135 144 150 156 159 164 167 168 165 160 159 160 159 160 160 160 160 161 163 167 165 159 155 147 141 143 141 130 116 101 101 86 69 77 79 74 77 82 90 92 96 105 111 118 118 109 79 34 8 2 3 352 320
206 204 214 216 188 219 231 224 239 249 252 255 291 299 292 274 256 246 173 105 58 144 185 153 141 140 137 134 130 128 132 132 128 123 122 123 119 121 127 132 132 131 135 139 143 151 158 162 166 170 173 173 170 165 162 163 162 164 165 164 165 164 165 168 165 157 153 152 151 150 144 128 120 109 112 120 56 66 71 67 66 68 79 85 86 84 81 81 77 63 23 3 355 345 329 323 313
244 227 214 203 189 214 227 225 232 246 254 256 301 273 271 287 339 3 96 124 171 200 176 156 144 137 130 116 91 70 56 82 111 118 122 121 126 132 134 137 135 133 137 141 147 157 164 166 168 169 171 174 172 168 165 166 169 170 169 168 167 166 167 168 164 157 153 157 160 159 156 146 161 170 163 199 272 27 61 55 51 55 65 71 78 64 44 35 31 21 0 349 341 331 325 326 324
240 245 217 209 207 214 227 225 228 241 248 234 220 250 269 14 9 350 42 107 234 224 151 135 126 119 114 106 95 84 64 45 54 74 98 118 131 131 126 128 127 128 137 146 155 164 169 166 164 165 168 171 170 171 172 175 177 176 171 168 168 166 167 170 167 160 156 158 160 172 180 189 211 209 213 228 252 265 298 25 45 54 60 71 84 65 43 25 7 15 8 357 346 334 331 332 332
227 245 236 225 221 223 235 235 234 241 239 218 197 285 304 15 52 1 26 344 308 114 117 111 104 101 102 102 104 109 107 98 82 72 81 106 111 108 114 120 123 131 139 150 159 164 169 166 162 163 165 168 170 175 178 179 179 175 171 167 167 168 170 173 170 163 162 161 167 197 207 219 228 219 222 228 229 210 258 322 14 37 60 69 74 65 50 39 23 21 6 353 346 335 329 325 323
228 234 239 236 232 229 235 243 248 249 245 231 217 270 280 167 112 67 34 343 77 106 108 104 104 101 100 110 119 124 124 123 124 121 127 134 116 112 120 124 130 136 138 149 158 160 168 168 164 163 164 168 172 175 174 175 176 173 170 168 171 175 175 172 170 170 174 177 182 202 211 222 214 203 200 193 183 187 228 258 270 282 68 58 50 47 37 28 16 5 353 346 340 332 325 319 314
223 227 237 238 240 236 230 234 243 250 248 226 227 251 242 158 105 53 35 113 118 112 110 114 115 111 112 124 130 133 129 126 133 136 142 146 137 128 129 132 137 140 144 156 160 157 161 166 164 160 159 166 171 173 174 176 179 177 174 173 175 180 179 173 172 177 182 186 188 194 196 188 186 188 194 197 201 223 234 246 259 265 281 8 19 30 25 15 2 351 343 340 335 329 325 320 314
217 220 235 237 241 243 232 228 232 244 250 213 217 235 217 183 125 94 200 165 134 119 114 120 117 117 126 135 133 130 126 130 137 138 139 144 143 139 140 143 143 144 150 159 159 156 158 164 164 158 157 164 171 175 180 184 189 188 183 180 183 185 183 180 179 180 179 184 191 194 190 186 191 200 214 216 218 233 243 254 258 262 278 314 319 332 346 344 344 340 337 338 336 335 333 330 326
245 227 238 238 240 247 239 238 229 225 244 206 201 222 218 197 151 166 171 159 153 133 123 119 115 117 126 132 132 126 124 128 132 136 141 148 151 147 148 151 150 150 154 157 158 158 161 165 166 162 161 166 174 183 188 193 198 195 188 190 193 191 188 187 184 182 182 186 192 191 190 196 206 211 214 214 219 234 246 252 256 270 289 304 306 317 333 336 339 342 343 345 343 342 338 336 337
246 232 240 241 238 244 239 239 232 212 223 195 183 213 232 246 170 160 150 149 162 135 124 116 115 120 124 130 126 110 108 112 115 128 146 153 155 152 153 156 154 154 155 155 158 161 164 167 167 168 170 171 177 188 192 193 193 188 185 187 189 189 191 190 186 186 189 190 190 190 196 204 207 211 214 211 208 221 244 249 246 236 223 337 343 338 339 336 342 354 354 349 348 345 339 338 340
249 227 226 241 240 242 234 231 227 214 213 177 164 207 253 282 158 149 141 146 147 130 122 117 117 120 120 124 114 104 108 116 131 153 161 158 158 156 156 157 154 153 155 157 160 161 163 166 167 169 171 171 173 178 179 178 176 176 175 171 172 179 184 184 182 184 187 188 190 194 200 201 203 214 218 210 210 222 236 224 189 185 199 18 351 335 329 331 350 9 360 350 353 351 345 344 344
261 228 207 213 218 244 235 224 217 214 218 163 161 220 251 213 160 152 148 152 142 129 125 122 123 123 118 118 115 114 116 128 148 158 161 159 159 157 156 157 155 154 157 162 163 159 158 161 163 165 166 168 169 170 170 169 170 171 168 165 166 171 174 175 178 181 185 188 193 194 194 194 201 216 215 211 223 224 222 213 193 186 15 54 10 337 327 334 360 12 0 352 350 350 347 344 342
236 212 221 201 198 254 240 221 210 204 213 159 165 218 241 180 182 163 147 158 139 125 128 129 127 123 122 129 126 118 116 123 136 147 157 160 158 157 157 158 157 157 161 165 164 161 159 159 162 164 166 167 168 170 171 170 172 171 168 168 169 170 172 175 177 182 188 192 194 192 188 191 196 207 214 218 222 212 207 221 211 206 321 62 32 346 328 338 3 13 4 351 345 344 343 338 337
242 195 216 196 180 224 240 232 216 199 193 175 171 178 192 179 184 171 148 152 134 123 128 130 126 121 124 135 132 120 115 119 126 140 153 158 158 158 159 160 160 162 165 166 166 165 163 163 165 166 167 168 168 170 172 172 174 175 175 174 173 174 176 178 181 186 190 191 193 189 183 187 193 196 205 205 200 189 171 182 183 156 131 60 43 8 20 18 3 3 358 353 347 341 342 341 339
249 184 202 213 174 182 214 247 227 193 188 202 174 149 184 179 168 170 158 148 136 129 136 137 131 122 127 137 132 120 121 126 128 139 147 150 152 156 159 161 163 164 166 168 168 167 165 164 166 166 165 168 169 170 172 172 173 177 180 178 176 178 179 180 182 186 188 188 190 186 181 182 175 167 172 164 162 163 145 127 109 105 94 78 89 84 69 51 28 13 2 1 356 352 0 360 349
187 162 178 214 184 181 192 216 223 182 183 202 175 145 158 156 161 161 154 154 140 136 140 138 134 130 136 140 132 128 128 129 130 138 143 142 144 151 157 161 162 163 168 171 167 164 161 159 160 161 163 166 169 171 171 170 171 174 176 173 170 173 177 176 177 181 183 183 182 177 167 156 144 129 116 108 116 124 121 109 99 93 87 92 99 81 65 52 42 32 22 19 21 31 28 13 359
160 169 179 196 188 199 196 202 220 175 171 198 179 154 144 149 165 156 152 155 134 133 135 132 135 136 141 141 134 133 131 131 134 138 140 140 142 149 156 161 161 164 169 169 165 161 158 155 156 157 162 166 167 168 169 167 166 167 168 166 163 167 172 169 167 171 172 170 164 152 135 125 121 112 102 102 107 109 107 104 103 101 101 106 94 79 67 56 50 41 37 34 37 51 34 18 12
214 190 197 201 188 214 208 203 215 166 155 209 181 152 153 158 170 162 155 147 133 137 137 138 142 143 147 145 139 134 127 128 134 138 140 139 143 149 154 160 162 164 167 167 165 161 159 157 156 156 161 166 167 169 171 168 164 162 161 161 163 166 167 164 160 157 151 144 133 123 117 112 111 108 103 104 107 106 101 101 107 112 109 99 87 82 74 64 57 50 49 47 43 45 35 24 16
256 234 220 220 197 214 222 206 215 172 153 210 159 141 163 168 169 166 155 150 152 154 150 150 149 148 150 145 142 137 131 135 137 141 144 141 143 148 153 159 163 165 164 166 166 163 162 161 159 159 162 166 169 172 175 173 170 166 161 161 165 162 159 159 152 139 129 124 119 116 114 112 110 108 105 107 108 106 104 105 106 105 98 89 86 82 73 64 54 48 47 47 48 46 43 34 24
253 238 218 239 206 203 235 232 228 180 164 202 152 147 169 165 156 157 155 156 160 158 153 153 151 151 153 150 148 143 141 145 147 148 147 144 143 145 151 160 166 165 162 166 169 166 167 166 165 165 167 168 170 172 174 175 173 169 163 163 164 157 152 149 139 128 121 118 115 116 115 113 113 111 110 110 105 102 102 101 96 91 84 78 79 75 65 59 50 45 42 40 43 44 46 43 38
241 224 195 235 226 192 212 235 244 191 175 168 140 139 143 121 115 131 145 140 133 132 134 141 151 153 154 156 153 149 149 148 149 148 143 144 144 146 154 162 167 164 162 167 170 168 169 168 167 168 170 170 170 170 172 174 171 168 163 160 159 152 142 135 128 121 119 116 114 115 114 113 115 114 113 109 102 98 94 90 83 75 72 65 63 63 58 54 48 43 41 37 35 37 43 45 47
234 222 191 214 230 225 214 222 231 192 174 130 115 92 60 137 134 138 132 120 127 131 133 141 152 150 149 155 155 152 151 147 145 145 146 148 149 152 157 162 167 166 165 167 168 170 169 167 166 169 170 169 170 170 169 171 169 165 159 153 149 141 133 128 123 118 116 117 115 113 112 112 113 110 106 103 98 94 87 80 70 64 64 58 56 59 58 54 50 45 40 38 40 43 45 48 54
243 228 198 205 212 238 249 233 201 158 202 181 128 108 273 178 158 158 136 129 139 143 147 155 155 150 152 158 160 155 149 148 145 146 154 157 153 155 157 161 166 165 165 166 167 171 172 169 169 169 169 169 171 171 169 170 167 165 161 153 145 137 130 126 123 121 119 118 115 113 111 109 107 101 96 95 93 87 79 72 65 57 55 56 56 57 59 56 51 49 43 41 46 48 48 50 52
242 201 176 203 209 230 245 234 116 166 210 216 177 165 171 173 243 243 183 144 151 154 157 162 157 156 162 163 164 159 152 152 149 149 155 155 154 156 157 161 165 164 165 166 169 174 174 172 173 171 169 170 174 172 169 168 165 164 162 157 149 141 134 127 124 125 123 120 117 114 110 103 98 93 88 86 83 77 72 70 67 64 59 57 56 57 61 60 56 54 49 51 57 56 58 59 53
227 149 155 192 205 228 237 176 192 225 232 226 204 169 130 173 203 219 200 151 153 160 161 164 162 164 166 165 168 164 159 158 153 153 154 153 157 160 159 162 165 165 165 168 172 176 175 172 173 172 168 170 174 173 171 169 166 162 159 155 148 142 136 130 127 127 125 123 118 111 106 99 92 87 81 76 72 71 72 72 71 73 72 66 65 69 70 66 60 59 59 65 67 64 64 66 62
225 165 161 181 195 219 217 185 235 251 254 241 219 150 125 194 175 184 199 164 164 166 166 168 169 170 167 164 171 167 162 163 158 157 158 156 156 159 161 162 164 166 166 168 171 175 174 169 167 170 168 169 172 174 174 172 168 162 157 151 142 137 136 134 132 129 127 125 116 108 103 97 89 82 77 70 66 66 69 76 78 77 77 76 76 78 74 65 60 61 68 72 72 70 68 68 66
240 209 185 183 210 212 180 190 223 242 229 230 218 179 136 152 158 157 185 205 193 177 173 176 173 172 169 166 172 168 163 165 163 160 159 154 151 156 160 156 157 162 163 166 170 173 172 166 163 164 166 167 167 170 173 173 169 162 155 148 140 138 138 136 135 131 127 124 115 107 102 94 87 82 80 77 75 76 78 83 84 82 82 80 79 77 69 65 67 72 75 77 75 71 68 66 66
248 238 207 220 265 358 171 210 169 185 245 226 207 194 146 143 189 177 184 192 182 172 174 183 179 175 170 171 174 169 164 165 162 158 152 148 147 149 150 146 147 153 158 161 162 164 165 162 159 156 158 161 162 164 167 165 162 156 151 147 144 143 142 139 134 129 127 123 115 107 100 93 91 89 89 86 83 82 84 84 84 84 84 80 77 72 69 73 78 80 80 78 74 70 67 67 67
228 239 180 181 284 6 316 272 131 187 246 238 199 187 166 174 195 194 201 194 174 170 177 182 182 177 170 172 172 167 164 159 156 155 150 147 144 141 141 139 141 146 149 150 149 149 150 151 152 149 150 155 158 160 162 160 157 152 149 148 147 146 145 142 135 130 128 123 115 108 102 99 97 94 90 85 80 79 82 84 85 87 85 82 79 75 77 84 84 83 81 76 72 70 68 65 64
218 228 148 146 201 174 220 240 217 208 244 242 184 171 190 206 192 192 197 191 179 182 184 179 175 170 169 170 165 163 160 154 155 156 152 150 143 139 140 138 140 143 143 141 140 140 139 140 143 141 142 149 154 157 159 159 157 153 151 151 150 149 147 143 137 133 129 124 116 109 105 103 99 94 89 83 79 81 85 87 88 89 88 86 85 82 85 88 85 83 80 75 73 71 67 66 69
206 210 159 158 166 159 204 223 236 224 247 240 175 162 205 246 191 189 187 184 188 191 188 176 168 165 167 164 158 156 155 154 156 155 152 150 145 143 142 140 141 143 141 137 136 137 135 135 138 136 135 142 148 150 152 152 151 152 153 152 151 149 146 142 138 134 129 122 114 109 108 105 99 94 90 85 84 89 92 92 92 92 91 90 89 88 89 88 85 83 81 78 76 72 69 72 76
207 193 130 155 170 164 201 208 193 212 248 254 170 163 191 191 212 197 187 185 184 179 172 160 155 161 162 156 153 153 153 155 154 151 150 148 145 144 142 142 144 143 139 137 136 138 137 136 137 134 133 138 142 143 145 145 145 148 151 150 148 147 144 139 135 132 127 120 114 112 110 105 100 96 93 90 91 97 99 98 96 95 94 93 91 91 91 89 87 85 84 83 80 75 74 76 76
204 160 137 188 180 157 194 197 180 182 187 217 179 188 193 160 299 193 168 163 158 149 146 142 147 162 161 154 155 156 155 154 154 153 148 144 145 145 145 145 145 142 139 139 140 141 139 138 138 135 135 138 140 141 141 141 143 145 147 146 144 143 141 137 132 129 124 119 117 116 112 106 103 102 101 100 98 101 104 102 99 97 97 95 93 93 92 90 89 88 87 85 81 77 75 74 71
173 168 192 202 156 134 140 203 211 111 136 215 207 101 252 75 16 52 120 127 138 144 152 156 158 166 163 157 158 158 157 154 155 156 151 148 148 148 149 148 145 143 142 141 142 144 143 141 139 137 136 138 139 140 140 140 141 141 141 142 141 140 138 135 132 128 122 119 118 118 114 108 108 110 111 110 107 107 108 106 103 101 99 97 96 94 92 92 91 88 87 85 81 76 73 70 66
150 189 197 156 148 155 109 148 299 80 155 250 266 143 181 95 42 87 118 129 151 161 162 159 160 167 165 161 162 159 157 154 151 152 151 150 149 148 149 148 146 146 144 143 144 145 144 143 143 141 139 139 140 140 140 141 141 139 138 138 138 138 136 133 131 127 124 123 121 118 116 114 116 120 120 118 116 114 113 111 108 105 102 99 98 96 93 92 91 88 85 83 78 74 72 70 65
164 181 173 141 178 227 138 161 208 136 169 270 341 163 183 147 153 152 142 152 168 173 168 160 165 171 167 163 161 156 155 153 148 150 153 151 150 149 148 146 145 145 145 145 145 145 144 145 146 144 142 142 142 142 141 141 142 140 138 138 138 137 135 133 130 129 129 127 123 121 123 124 126 128 127 126 122 119 117 116 113 109 106 103 101 99 95 91 88 85 83 79 75 73 74 74 69
189 143 168 162 160 180 186 181 172 154 173 201 14 308 254 205 169 160 163 170 172 175 175 169 172 174 169 163 160 157 158 157 152 154 156 152 151 150 149 146 144 145 145 144 145 145 145 146 146 145 144 144 145 146 144 141 141 141 138 137 136 135 136 136 136 136 133 128 126 128 130 132 132 132 132 130 125 122 120 119 118 115 110 106 104 101 97 93 89 85 81 78 77 80 81 78 72
182 147 186 190 163 164 162 168 164 139 148 163 152 222 265 250 178 165 169 173 174 176 176 173 176 176 171 166 161 161 162 158 156 156 154 152 150 150 149 146 144 144 143 144 146 147 148 148 149 148 148 147 148 148 147 143 141 141 138 136 134 134 136 136 136 134 130 128 130 133 134 134 134 133 134 131 126 124 124 126 125 121 113 108 106 102 98 97 94 89 83 81 85 89 86 79 71
159 155 193 183 170 154 119 215 253 127 135 165 151 191 264 258 178 168 170 174 178 178 173 172 177 175 171 169 164 162 161 159 157 155 154 151 149 150 149 145 144 144 144 146 147 148 149 150 151 152 151 151 152 152 151 147 144 141 138 136 135 134 134 132 131 131 131 132 134 135 136 135 131 129 131 129 123 123 127 132 131 124 115 109 105 102 100 99 97 92 87 87 90 91 85 76 69